| time (UTC) | temp F | wind direction | speed MPH | gust MPH | rain 1hr in | rain 24hr in | rain mn in | humidity % | barometer mb |
| 20260903223826 | 69 | 209 | 2.0 | 13.0 | 0.00 | 0.12 | 0.09 | 27 | 1009.8 |
| 20260903222926 | 69 | 204 | 8.0 | 13.0 | 0.00 | 0.12 | 0.09 | 25 | 1010.0 |
| 20260903222026 | 69 | 196 | 2.0 | 12.0 | 0.00 | 0.12 | 0.09 | 30 | 1010.0 |
| 20260903221126 | 67 | 175 | 1.0 | 5.0 | 0.00 | 0.12 | 0.09 | 32 | 1010.1 |
| 20260903220226 | 67 | 170 | 2.0 | 6.0 | 0.00 | 0.12 | 0.09 | 33 | 1010.2 |
| 20260903215326 | 68 | 55 | 2.0 | 5.0 | 0.00 | 0.12 | 0.09 | 38 | 1010.2 |
| 20260903214426 | 67 | 130 | 3.0 | 6.0 | 0.00 | 0.12 | 0.09 | 39 | 1010.3 |
| 20260903213526 | 67 | 142 | 3.0 | 11.0 | 0.00 | 0.12 | 0.09 | 38 | 1010.4 |
| 20260903211727 | 65 | 164 | 0.0 | 8.0 | 0.00 | 0.12 | 0.09 | 45 | 1010.6 |
| 20260903210826 | 65 | 194 | 3.0 | 7.0 | 0.00 | 0.12 | 0.09 | 45 | 1010.5 |
| 20260903205927 | 65 | 176 | 4.0 | 11.0 | 0.00 | 0.12 | 0.09 | 45 | 1010.6 |
| 20260903205026 | 63 | 165 | 4.0 | 8.0 | 0.00 | 0.12 | 0.09 | 54 | 1010.7 |
| 20260903204126 | 63 | 187 | 4.0 | 8.0 | 0.00 | 0.12 | 0.09 | 59 | 1010.8 |
| 20260903203226 | 62 | 185 | 4.0 | 8.0 | 0.00 | 0.12 | 0.09 | 60 | 1010.9 |
| 20260903202327 | 62 | 196 | 4.0 | 8.0 | 0.00 | 0.12 | 0.09 | 61 | 1010.9 |
| 20260903201426 | 62 | 210 | 4.0 | 8.0 | 0.00 | 0.12 | 0.09 | 59 | 1010.9 |
| 20260903200526 | 61 | 184 | 5.0 | 11.0 | 0.00 | 0.12 | 0.09 | 59 | 1011.0 |
| 20260903195626 | 61 | 183 | 6.0 | 9.0 | 0.00 | 0.12 | 0.09 | 61 | 1011.1 |
| 20260903194726 | 62 | 214 | 4.0 | 10.0 | 0.00 | 0.12 | 0.09 | 62 | 1011.0 |
| 20260903193826 | 60 | 223 | 2.0 | 11.0 | 0.00 | 0.12 | 0.09 | 67 | 1011.0 |
| 20260903192926 | 60 | 210 | 5.0 | 10.0 | 0.00 | 0.12 | 0.09 | 67 | 1011.1 |
| 20260903192038 | 60 | 274 | 6.0 | 9.0 | 0.00 | 0.12 | 0.09 | 67 | 1011.1 |
| 20260903191126 | 60 | 214 | 2.0 | 6.0 | 0.00 | 0.12 | 0.09 | 64 | 1011.0 |
| 20260903190225 | 60 | 201 | 4.0 | 8.0 | 0.00 | 0.12 | 0.09 | 67 | 1011.0 |
| 20260903185326 | 61 | 204 | 4.0 | 10.0 | 0.00 | 0.12 | 0.09 | 63 | 1011.0 |
| 20260903184426 | 61 | 242 | 3.0 | 8.0 | 0.00 | 0.12 | 0.09 | 68 | 1010.8 |
| 20260903183525 | 61 | 219 | 6.0 | 9.0 | 0.00 | 0.12 | 0.09 | 71 | 1010.9 |
| 20260903182626 | 60 | 221 | 4.0 | 8.0 | 0.00 | 0.12 | 0.09 | 70 | 1010.8 |
| 20260903181726 | 60 | 218 | 3.0 | 8.0 | 0.00 | 0.12 | 0.09 | 68 | 1010.9 |
| 20260903180825 | 61 | 212 | 2.0 | 6.0 | 0.00 | 0.12 | 0.09 | 73 | 1010.7 |
| 20260903175926 | 60 | 245 | 2.0 | 6.0 | 0.00 | 0.12 | 0.09 | 78 | 1010.7 |
| 20260903175025 | 59 | 248 | 2.0 | 7.0 | 0.00 | 0.12 | 0.09 | 83 | 1010.7 |
| 20260903174125 | 58 | 204 | 3.0 | 5.0 | 0.00 | 0.12 | 0.09 | 97 | 1010.7 |
| 20260903171426 | 57 | 100 | 2.0 | 2.0 | 0.00 | 0.12 | 0.09 | 99 | 1010.5 |
| 20260903170527 | 57 | 90 | 0.0 | 2.0 | 0.00 | 0.12 | 0.09 | 99 | 1010.4 |
| 20260903165625 | 56 | 91 | 0.0 | 2.0 | 0.00 | 0.12 | 0.09 | 99 | 1010.4 |
| 20260903164725 | 56 | 95 | 1.0 | 2.0 | 0.00 | 0.12 | 0.09 | 99 | 1010.3 |
| 20260903163825 | 56 | 89 | 0.0 | 3.0 | 0.00 | 0.12 | 0.09 | 99 | 1010.3 |
| 20260903162925 | 56 | 65 | 0.0 | 2.0 | 0.00 | 0.12 | 0.09 | 99 | 1010.3 |
| 20260903162025 | 55 | 76 | 0.0 | 3.0 | 0.00 | 0.12 | 0.09 | 99 | 1010.2 |
| 20260903161125 | 55 | 101 | 2.0 | 4.0 | 0.00 | 0.13 | 0.09 | 99 | 1010.2 |
| 20260903154425 | 55 | 108 | 0.0 | 2.0 | 0.02 | 0.13 | 0.09 | 99 | 1009.8 |
| 20260903153525 | 54 | 2 | 0.0 | 3.0 | 0.02 | 0.13 | 0.09 | 99 | 1009.7 |
| 20260903152625 | 54 | 269 | 2.0 | 4.0 | 0.05 | 0.14 | 0.09 | 99 | 1009.6 |
| 20260903151725 | 54 | 167 | 3.0 | 5.0 | 0.05 | 0.14 | 0.09 | 99 | 1009.6 |
| 20260903150825 | 54 | 95 | 1.0 | 3.0 | 0.05 | 0.14 | 0.09 | 99 | 1009.7 |
| 20260903144125 | 54 | 23 | 1.0 | 2.0 | 0.02 | 0.22 | 0.07 | 99 | 1009.4 |
| 20260903142325 | 54 | 1 | 0.0 | 2.0 | 0.00 | 0.20 | 0.05 | 99 | 1009.3 |
| 20260903141425 | 53 | 1 | 1.0 | 2.0 | 0.01 | 0.20 | 0.05 | 99 | 1009.1 |
| 20260903140525 | 53 | 14 | 1.0 | 3.0 | 0.01 | 0.20 | 0.05 | 99 | 1009.2 |
| 20260903135625 | 53 | 20 | 2.0 | 3.0 | 0.01 | 0.20 | 0.05 | 99 | 1009.0 |
| 20260903134725 | 53 | 1 | 2.0 | 3.0 | 0.02 | 0.20 | 0.05 | 99 | 1008.9 |
| 20260903133825 | 53 | 1 | 2.0 | 4.0 | 0.02 | 0.20 | 0.05 | 99 | 1008.8 |
| 20260903132925 | 53 | 1 | 2.0 | 3.0 | 0.02 | 0.20 | 0.05 | 99 | 1008.8 |
| 20260903131125 | 52 | 327 | 2.0 | 4.0 | 0.02 | 0.19 | 0.04 | 99 | 1008.7 |
| 20260903130225 | 52 | 345 | 2.0 | 3.0 | 0.02 | 0.19 | 0.04 | 99 | 1008.7 |
| 20260903125325 | 52 | 355 | 2.0 | 4.0 | 0.01 | 0.18 | 0.02 | 99 | 1008.7 |
| 20260903124425 | 52 | 349 | 2.0 | 4.0 | 0.02 | 0.18 | 0.02 | 99 | 1008.5 |
| 20260903123525 | 52 | 358 | 2.0 | 3.0 | 0.02 | 0.18 | 0.02 | 99 | 1008.5 |
| 20260903122625 | 52 | 345 | 2.0 | 3.0 | 0.02 | 0.18 | 0.02 | 99 | 1008.6 |
| 20260903121725 | 52 | 337 | 2.0 | 4.0 | 0.01 | 0.17 | 0.01 | 99 | 1008.7 |
| 20260903115925 | 53 | 339 | 2.0 | 4.0 | 0.01 | 0.17 | 0.01 | 99 | 1008.6 |
| 20260903115025 | 53 | 334 | 3.0 | 4.0 | 0.00 | 0.15 | 0.00 | 99 | 1008.6 |
| 20260903114125 | 53 | 327 | 3.0 | 4.0 | 0.00 | 0.15 | 0.00 | 99 | 1008.5 |
| 20260903113225 | 53 | 314 | 2.0 | 4.0 | 0.00 | 0.15 | 0.00 | 99 | 1008.5 |
| 20260903112325 | 53 | 314 | 3.0 | 4.0 | 0.00 | 0.15 | 0.00 | 99 | 1008.4 |
| 20260903111425 | 53 | 318 | 3.0 | 4.0 | 0.00 | 0.15 | 0.00 | 99 | 1008.5 |
| 20260903110525 | 53 | 323 | 2.0 | 4.0 | 0.00 | 0.15 | 0.00 | 99 | 1008.5 |
| 20260903105625 | 53 | 312 | 2.0 | 4.0 | 0.00 | 0.15 | 0.00 | 99 | 1008.4 |
| 20260903103825 | 53 | 314 | 2.0 | 4.0 | 0.00 | 0.15 | 0.00 | 99 | 1008.2 |
| 20260903102925 | 53 | 341 | 2.0 | 4.0 | 0.00 | 0.15 | 0.00 | 99 | 1008.4 |
| 20260903102025 | 53 | 328 | 3.0 | 4.0 | 0.00 | 0.15 | 0.00 | 99 | 1008.4 |
| 20260903101125 | 54 | 323 | 2.0 | 4.0 | 0.00 | 0.15 | 0.00 | 99 | 1008.3 |
| 20260903095324 | 54 | 4 | 2.0 | 4.0 | 0.00 | 0.15 | 0.00 | 99 | 1008.2 |
| 20260903094424 | 54 | 345 | 2.0 | 4.0 | 0.00 | 0.15 | 0.00 | 99 | 1008.3 |
| 20260903093525 | 54 | 351 | 0.0 | 4.0 | 0.00 | 0.15 | 0.00 | 99 | 1008.2 |
| 20260903092624 | 54 | 316 | 2.0 | 4.0 | 0.00 | 0.15 | 0.00 | 99 | 1008.1 |
| 20260903091725 | 54 | 310 | 2.0 | 4.0 | 0.00 | 0.15 | 0.00 | 99 | 1008.3 |
| 20260903085924 | 54 | 314 | 2.0 | 3.0 | 0.00 | 0.15 | 0.00 | 99 | 1008.2 |
| 20260903085025 | 54 | 332 | 2.0 | 3.0 | 0.00 | 0.15 | 0.00 | 99 | 1008.2 |
| 20260903084125 | 54 | 350 | 2.0 | 3.0 | 0.00 | 0.15 | 0.00 | 99 | 1008.2 |
| 20260903083224 | 54 | 302 | 2.0 | 2.0 | 0.00 | 0.15 | 0.00 | 99 | 1008.2 |
| 20260903082324 | 55 | 129 | 1.0 | 2.0 | 0.00 | 0.15 | 0.00 | 99 | 1008.2 |
| 20260903080524 | 55 | 2 | 1.0 | 4.0 | 0.00 | 0.15 | 0.00 | 98 | 1008.1 |
| 20260903075624 | 55 | 1 | 2.0 | 3.0 | 0.00 | 0.15 | 0.00 | 98 | 1008.2 |
| 20260903074724 | 55 | 1 | 1.0 | 2.0 | 0.00 | 0.15 | 0.00 | 97 | 1008.2 |
| 20260903073824 | 55 | 352 | 0.0 | 4.0 | 0.00 | 0.15 | 0.00 | 96 | 1008.1 |
| 20260903072924 | 55 | 351 | 2.0 | 4.0 | 0.00 | 0.15 | 0.00 | 96 | 1008.0 |
| 20260903072025 | 55 | 2 | 0.0 | 4.0 | 0.01 | 0.15 | 0.00 | 96 | 1008.0 |
| 20260903071124 | 55 | 34 | 1.0 | 5.0 | 0.02 | 0.15 | 0.00 | 96 | 1008.1 |
| 20260903070224 | 55 | 26 | 2.0 | 6.0 | 0.02 | 0.15 | 0.00 | 95 | 1008.0 |
| 20260903063524 | 56 | 23 | 2.0 | 5.0 | 0.02 | 0.15 | 0.15 | 95 | 1008.1 |
| 20260903062624 | 56 | 27 | 3.0 | 5.0 | 0.02 | 0.15 | 0.15 | 95 | 1008.1 |
| 20260903061724 | 56 | 40 | 1.0 | 4.0 | 0.00 | 0.13 | 0.13 | 94 | 1008.0 |
| 20260903060824 | 56 | 13 | 1.0 | 4.0 | 0.00 | 0.13 | 0.13 | 94 | 1008.2 |
| 20260903055924 | 56 | 26 | 2.0 | 4.0 | 0.00 | 0.13 | 0.13 | 93 | 1008.2 |
| 20260903055024 | 56 | 356 | 3.0 | 4.0 | 0.00 | 0.13 | 0.13 | 93 | 1008.2 |
| 20260903054124 | 56 | 12 | 2.0 | 7.0 | 0.00 | 0.13 | 0.13 | 94 | 1008.2 |
| 20260903053224 | 56 | 10 | 3.0 | 5.0 | 0.00 | 0.13 | 0.13 | 94 | 1008.3 |
| 20260903052324 | 56 | 6 | 1.0 | 5.0 | 0.00 | 0.13 | 0.13 | 93 | 1008.3 |
| 20260903051424 | 56 | 6 | 1.0 | 4.0 | 0.00 | 0.13 | 0.13 | 93 | 1008.3 |
| 20260903050524 | 56 | 4 | 3.0 | 4.0 | 0.00 | 0.13 | 0.13 | 92 | 1008.3 |
| 20260903045624 | 56 | 336 | 2.0 | 7.0 | 0.00 | 0.13 | 0.13 | 92 | 1008.3 |
| 20260903044724 | 56 | 328 | 3.0 | 7.0 | 0.00 | 0.13 | 0.13 | 91 | 1008.1 |
| 20260903043824 | 57 | 337 | 4.0 | 7.0 | 0.00 | 0.13 | 0.13 | 89 | 1008.0 |
| 20260903042924 | 57 | 344 | 3.0 | 7.0 | 0.00 | 0.13 | 0.13 | 87 | 1008.0 |
| 20260903042024 | 58 | 68 | 4.0 | 5.0 | 0.00 | 0.13 | 0.13 | 85 | 1007.9 |
| 20260903041124 | 58 | 358 | 0.0 | 6.0 | 0.00 | 0.13 | 0.13 | 86 | 1007.8 |
| 20260903035324 | 57 | 10 | 2.0 | 7.0 | 0.00 | 0.13 | 0.13 | 88 | 1007.3 |
| 20260903032624 | 56 | 337 | 6.0 | 8.0 | 0.00 | 0.13 | 0.13 | 89 | 1007.2 |
| 20260903031724 | 56 | 339 | 5.0 | 8.0 | 0.00 | 0.13 | 0.13 | 87 | 1007.1 |
| 20260903030824 | 56 | 327 | 6.0 | 9.0 | 0.00 | 0.13 | 0.13 | 86 | 1007.0 |
| 20260903025924 | 57 | 328 | 6.0 | 10.0 | 0.00 | 0.13 | 0.13 | 84 | 1006.8 |
| 20260903025024 | 58 | 345 | 5.0 | 8.0 | 0.00 | 0.13 | 0.13 | 81 | 1007.0 |
| 20260903024124 | 59 | 5 | 2.0 | 9.0 | 0.00 | 0.13 | 0.13 | 80 | 1007.0 |
| 20260903023224 | 58 | 2 | 4.0 | 7.0 | 0.00 | 0.13 | 0.13 | 81 | 1006.8 |
| 20260903022324 | 58 | 355 | 4.0 | 8.0 | 0.00 | 0.13 | 0.13 | 82 | 1006.8 |
| 20260903021423 | 58 | 357 | 4.0 | 8.0 | 0.00 | 0.13 | 0.13 | 84 | 1007.0 |
| 20260903020524 | 58 | 331 | 4.0 | 8.0 | 0.00 | 0.13 | 0.13 | 85 | 1007.0 |
| 20260903015623 | 58 | 318 | 4.0 | 8.0 | 0.00 | 0.13 | 0.13 | 84 | 1007.1 |
| 20260903014724 | 59 | 337 | 4.0 | 7.0 | 0.00 | 0.13 | 0.13 | 82 | 1007.1 |
| 20260903013823 | 60 | 337 | 4.0 | 7.0 | 0.00 | 0.13 | 0.13 | 80 | 1007.2 |
| 20260903012923 | 61 | 336 | 4.0 | 6.0 | 0.00 | 0.13 | 0.13 | 78 | 1007.1 |
| 20260903012023 | 61 | 348 | 4.0 | 6.0 | 0.00 | 0.13 | 0.13 | 76 | 1007.2 |
| 20260903010224 | 63 | 6 | 3.0 | 5.0 | 0.00 | 0.13 | 0.13 | 70 | 1007.3 |
| 20260903005323 | 64 | 3 | 2.0 | 6.0 | 0.00 | 0.13 | 0.13 | 66 | 1007.5 |
| 20260903004424 | 65 | 337 | 2.0 | 11.0 | 0.00 | 0.13 | 0.13 | 63 | 1007.5 |
| 20260903003524 | 66 | 343 | 4.0 | 12.0 | 0.00 | 0.13 | 0.13 | 61 | 1007.6 |
| 20260903002624 | 66 | 347 | 1.0 | 5.0 | 0.00 | 0.13 | 0.13 | 63 | 1007.6 |
| 20260903001723 | 66 | 355 | 3.0 | 8.0 | 0.00 | 0.13 | 0.13 | 62 | 1007.6 |
| 20260903000824 | 66 | 343 | 4.0 | 9.0 | 0.00 | 0.13 | 0.13 | 62 | 1007.5 |
| 20260902235923 | 66 | 17 | 4.0 | 7.0 | 0.00 | 0.13 | 0.13 | 61 | 1007.6 |
| 20260902234123 | 67 | 29 | 3.0 | 7.0 | 0.00 | 0.13 | 0.13 | 57 | 1007.6 |
| 20260902233223 | 67 | 47 | 2.0 | 8.0 | 0.00 | 0.13 | 0.13 | 60 | 1007.8 |
| 20260902232323 | 67 | 12 | 1.0 | 8.0 | 0.00 | 0.13 | 0.13 | 62 | 1007.8 |
| 20260902231423 | 66 | 2 | 3.0 | 10.0 | 0.00 | 0.13 | 0.13 | 64 | 1007.8 |
| 20260902230523 | 64 | 2 | 2.0 | 8.0 | 0.00 | 0.13 | 0.13 | 67 | 1008.0 |
| 20260902225624 | 64 | 350 | 3.0 | 6.0 | 0.00 | 0.13 | 0.13 | 67 | 1008.1 |
| 20260902224723 | 64 | 328 | 3.0 | 6.0 | 0.00 | 0.13 | 0.13 | 67 | 1008.1 |